Year,Month,Day,Hour,Minute,Value (Times are PST for temperature in C)
2015,05,23,00,00,13.40
2015,05,23,00,01,13.30
2015,05,23,00,02,13.30
2015,05,23,00,03,13.30
2015,05,23,00,04,13.20
2015,05,23,00,05,13.20
2015,05,23,00,06,13.10
2015,05,23,00,07,13.10
2015,05,23,00,08,13.00
2015,05,23,00,09,13.00
2015,05,23,00,10,12.90
2015,05,23,00,11,12.80
2015,05,23,00,12,12.80
2015,05,23,00,13,12.80
2015,05,23,00,14,12.70
2015,05,23,00,15,12.70
2015,05,23,00,16,12.70
2015,05,23,00,17,12.60
2015,05,23,00,18,12.60
2015,05,23,00,19,12.60
2015,05,23,00,20,12.60
2015,05,23,00,21,12.50
2015,05,23,00,22,12.50
2015,05,23,00,23,12.50
2015,05,23,00,24,12.50
2015,05,23,00,25,12.40
2015,05,23,00,26,12.40
2015,05,23,00,27,12.40
2015,05,23,00,28,12.40
2015,05,23,00,29,12.30
2015,05,23,00,30,12.30
2015,05,23,00,31,12.30
2015,05,23,00,32,12.30
2015,05,23,00,33,12.30
2015,05,23,00,34,12.30
2015,05,23,00,35,12.30
2015,05,23,00,36,12.30
2015,05,23,00,37,12.30
2015,05,23,00,38,12.30
2015,05,23,00,39,12.30
2015,05,23,00,40,12.30
2015,05,23,00,41,12.30
2015,05,23,00,42,12.30
2015,05,23,00,43,12.30
2015,05,23,00,44,12.30
2015,05,23,00,45,12.30
2015,05,23,00,46,12.30
2015,05,23,00,47,12.20
2015,05,23,00,48,12.20
2015,05,23,00,49,12.20
2015,05,23,00,50,12.20
2015,05,23,00,51,12.20
2015,05,23,00,52,12.20
2015,05,23,00,53,12.10
2015,05,23,00,54,12.10
2015,05,23,00,55,12.10
2015,05,23,00,56,12.10
2015,05,23,00,57,12.10
2015,05,23,00,58,12.10
2015,05,23,00,59,12.10
2015,05,23,01,00,12.10
2015,05,23,01,01,12.10
2015,05,23,01,02,12.10
2015,05,23,01,03,12.00
2015,05,23,01,04,12.00
2015,05,23,01,05,12.00
2015,05,23,01,06,12.00
2015,05,23,01,07,12.00
2015,05,23,01,08,12.00
2015,05,23,01,09,11.90
2015,05,23,01,10,12.00
2015,05,23,01,11,11.90
2015,05,23,01,12,11.90
2015,05,23,01,13,11.90
2015,05,23,01,14,11.90
2015,05,23,01,15,11.90
2015,05,23,01,16,11.90
2015,05,23,01,17,11.90
2015,05,23,01,18,11.90
2015,05,23,01,19,11.90
2015,05,23,01,20,11.90
2015,05,23,01,21,11.90
2015,05,23,01,22,11.90
2015,05,23,01,23,11.90
2015,05,23,01,24,11.90
2015,05,23,01,25,11.90
2015,05,23,01,26,11.90
2015,05,23,01,27,11.90
2015,05,23,01,28,11.90
2015,05,23,01,29,11.90
2015,05,23,01,30,11.90
2015,05,23,01,31,11.80
2015,05,23,01,32,11.80
2015,05,23,01,33,11.80
2015,05,23,01,34,11.80
2015,05,23,01,35,11.80
2015,05,23,01,36,11.80
2015,05,23,01,37,11.80
2015,05,23,01,38,11.80
2015,05,23,01,39,11.80
2015,05,23,01,40,11.80
2015,05,23,01,41,11.80
2015,05,23,01,42,11.80
2015,05,23,01,43,11.90
2015,05,23,01,44,11.90
2015,05,23,01,45,11.90
2015,05,23,01,46,11.80
2015,05,23,01,47,11.80
2015,05,23,01,48,11.90
2015,05,23,01,49,11.80
2015,05,23,01,50,11.90
2015,05,23,01,51,11.90
2015,05,23,01,52,11.90
2015,05,23,01,53,11.90
2015,05,23,01,54,11.90
2015,05,23,01,55,11.90
2015,05,23,01,56,11.90
2015,05,23,01,57,11.90
2015,05,23,01,58,11.90
2015,05,23,01,59,11.90
2015,05,23,02,00,11.90
2015,05,23,02,01,11.90
2015,05,23,02,02,11.80
2015,05,23,02,03,11.80
2015,05,23,02,04,11.80
2015,05,23,02,05,11.80
2015,05,23,02,06,11.80
2015,05,23,02,07,11.80
2015,05,23,02,08,11.80
2015,05,23,02,09,11.80
2015,05,23,02,10,11.70
2015,05,23,02,11,11.70
2015,05,23,02,12,11.70
2015,05,23,02,13,11.70
2015,05,23,02,14,11.70
2015,05,23,02,15,11.70
2015,05,23,02,16,11.70
2015,05,23,02,17,11.70
2015,05,23,02,18,11.70
2015,05,23,02,19,11.60
2015,05,23,02,20,11.60
2015,05,23,02,21,11.60
2015,05,23,02,22,11.60
2015,05,23,02,23,11.50
2015,05,23,02,24,11.50
2015,05,23,02,25,11.40
2015,05,23,02,26,11.40
2015,05,23,02,27,11.40
2015,05,23,02,28,11.40
2015,05,23,02,29,11.40
2015,05,23,02,30,11.30
2015,05,23,02,31,11.30
2015,05,23,02,32,11.30
2015,05,23,02,33,11.30
2015,05,23,02,34,11.30
2015,05,23,02,35,11.30
2015,05,23,02,36,11.30
2015,05,23,02,37,11.30
2015,05,23,02,38,11.30
2015,05,23,02,39,11.30
2015,05,23,02,40,11.30
2015,05,23,02,41,11.20
2015,05,23,02,42,11.20
2015,05,23,02,43,11.20
2015,05,23,02,44,11.20
2015,05,23,02,45,11.20
2015,05,23,02,46,11.20
2015,05,23,02,47,11.20
2015,05,23,02,48,11.20
2015,05,23,02,49,11.20
2015,05,23,02,50,11.20
2015,05,23,02,51,11.20
2015,05,23,02,52,11.10
2015,05,23,02,53,11.10
2015,05,23,02,54,11.20
2015,05,23,02,55,11.10
2015,05,23,02,56,11.20
2015,05,23,02,57,11.10
2015,05,23,02,58,11.20
2015,05,23,02,59,11.20
2015,05,23,03,00,11.20
2015,05,23,03,01,11.10
2015,05,23,03,02,11.10
2015,05,23,03,03,11.10
2015,05,23,03,04,11.10
2015,05,23,03,05,11.10
2015,05,23,03,06,11.10
2015,05,23,03,07,11.10
2015,05,23,03,08,11.10
2015,05,23,03,09,11.10
2015,05,23,03,10,11.10
2015,05,23,03,11,11.10
2015,05,23,03,12,11.10
2015,05,23,03,13,11.10
2015,05,23,03,14,11.10
2015,05,23,03,15,11.10
2015,05,23,03,16,11.10
2015,05,23,03,17,11.10
2015,05,23,03,18,11.10
2015,05,23,03,19,11.10
2015,05,23,03,20,11.10
2015,05,23,03,21,11.10
2015,05,23,03,22,11.10
2015,05,23,03,23,11.10
2015,05,23,03,24,11.10
2015,05,23,03,25,11.10
2015,05,23,03,26,11.10
2015,05,23,03,27,11.10
2015,05,23,03,28,11.10
2015,05,23,03,29,11.10
2015,05,23,03,30,11.10
2015,05,23,03,31,11.10
2015,05,23,03,32,11.10
2015,05,23,03,33,11.10
2015,05,23,03,34,11.10
2015,05,23,03,35,11.10
2015,05,23,03,36,11.10
2015,05,23,03,37,11.10
2015,05,23,03,38,11.10
2015,05,23,03,39,11.10
2015,05,23,03,40,11.10
2015,05,23,03,41,11.10
2015,05,23,03,42,11.10
2015,05,23,03,43,11.10
2015,05,23,03,44,11.10
2015,05,23,03,45,11.10
2015,05,23,03,46,11.10
2015,05,23,03,47,11.10
2015,05,23,03,48,11.10
2015,05,23,03,49,11.10
2015,05,23,03,50,11.10
2015,05,23,03,51,11.10
2015,05,23,03,52,11.10
2015,05,23,03,53,11.10
2015,05,23,03,54,11.10
2015,05,23,03,55,11.10
2015,05,23,03,56,11.10
2015,05,23,03,57,11.10
2015,05,23,03,58,11.10
2015,05,23,03,59,11.20
2015,05,23,04,00,11.20
2015,05,23,04,01,11.20
2015,05,23,04,02,11.20
2015,05,23,04,03,11.20
2015,05,23,05,02,11.60
2015,05,23,05,03,11.60
2015,05,23,05,04,11.60
2015,05,23,05,05,11.60
2015,05,23,05,06,11.60
2015,05,23,05,07,11.60
2015,05,23,05,08,11.60
2015,05,23,05,09,11.60
2015,05,23,05,10,11.50
2015,05,23,05,11,11.50
2015,05,23,05,12,11.50
2015,05,23,05,13,11.50
2015,05,23,05,14,11.40
2015,05,23,05,15,11.40
2015,05,23,05,16,11.40
2015,05,23,05,17,11.40
2015,05,23,05,18,11.40
2015,05,23,05,19,11.40
2015,05,23,05,20,11.30
2015,05,23,05,21,11.30
2015,05,23,05,22,11.30
2015,05,23,05,23,11.30
2015,05,23,05,24,11.30
2015,05,23,05,25,11.30
2015,05,23,05,26,11.30
2015,05,23,05,27,11.30
2015,05,23,05,28,11.30
2015,05,23,05,29,11.30
2015,05,23,05,30,11.30
2015,05,23,05,31,11.30
2015,05,23,05,32,11.30
2015,05,23,05,33,11.30
2015,05,23,05,34,11.30
2015,05,23,05,35,11.30
2015,05,23,05,36,11.30
2015,05,23,05,37,11.30
2015,05,23,05,38,11.30
2015,05,23,05,39,11.30
2015,05,23,05,40,11.30
2015,05,23,05,41,11.30
2015,05,23,05,42,11.30
2015,05,23,05,43,11.30
2015,05,23,05,44,11.30
2015,05,23,05,45,11.30
2015,05,23,05,46,11.30
2015,05,23,05,47,11.30
2015,05,23,05,48,11.30
2015,05,23,05,49,11.30
2015,05,23,05,50,11.30
2015,05,23,05,51,11.30
2015,05,23,05,52,11.30
2015,05,23,05,53,11.30
2015,05,23,05,54,11.30
2015,05,23,05,55,11.30
2015,05,23,05,56,11.30
2015,05,23,05,57,11.30
2015,05,23,05,58,11.30
2015,05,23,05,59,11.30
2015,05,23,06,00,11.30
2015,05,23,06,01,11.30
2015,05,23,06,02,11.30
2015,05,23,06,03,11.30
2015,05,23,06,04,11.30
2015,05,23,06,05,11.30
2015,05,23,06,06,11.30
2015,05,23,06,07,11.30
2015,05,23,06,08,11.30
2015,05,23,06,09,11.30
2015,05,23,06,10,11.30
2015,05,23,06,11,11.30
2015,05,23,06,12,11.30
2015,05,23,06,13,11.30
2015,05,23,06,14,11.30
2015,05,23,06,15,11.30
2015,05,23,06,16,11.30
2015,05,23,06,17,11.30
2015,05,23,06,18,11.30
2015,05,23,06,19,11.30
2015,05,23,06,20,11.30
2015,05,23,06,21,11.30
2015,05,23,06,22,11.30
2015,05,23,06,23,11.30
2015,05,23,06,24,11.30
2015,05,23,06,25,11.30
2015,05,23,06,26,11.30
2015,05,23,06,27,11.30
2015,05,23,06,28,11.30
2015,05,23,06,29,11.30
2015,05,23,06,30,11.30
2015,05,23,06,31,11.30
2015,05,23,06,32,11.30
2015,05,23,06,33,11.30
2015,05,23,06,34,11.30
2015,05,23,06,35,11.30
2015,05,23,06,36,11.30
2015,05,23,06,37,11.30
2015,05,23,06,38,11.40
2015,05,23,06,39,11.40
2015,05,23,06,40,11.40
2015,05,23,06,41,11.40
2015,05,23,06,42,11.40
2015,05,23,06,43,11.40
2015,05,23,06,44,11.40
2015,05,23,06,45,11.40
2015,05,23,06,46,11.40
2015,05,23,06,47,11.40
2015,05,23,06,48,11.40
2015,05,23,06,49,11.40
2015,05,23,06,50,11.40
2015,05,23,06,51,11.40
2015,05,23,06,52,11.40
2015,05,23,06,53,11.40
2015,05,23,06,54,11.40
2015,05,23,06,55,11.40
2015,05,23,06,56,11.40
2015,05,23,06,57,11.40
2015,05,23,06,58,11.40
2015,05,23,06,59,11.40
2015,05,23,07,00,11.40
2015,05,23,07,01,11.40
2015,05,23,07,02,11.40
2015,05,23,07,03,11.40
2015,05,23,07,04,11.40
2015,05,23,07,05,11.40
2015,05,23,07,06,11.40
2015,05,23,07,07,11.40
2015,05,23,07,08,11.40
2015,05,23,07,09,11.40
2015,05,23,07,10,11.40
2015,05,23,07,11,11.40
2015,05,23,07,12,11.40
2015,05,23,07,13,11.40
2015,05,23,07,14,11.40
2015,05,23,07,15,11.40
2015,05,23,07,16,11.40
2015,05,23,07,17,11.40
2015,05,23,07,18,11.40
2015,05,23,07,19,11.50
2015,05,23,07,20,11.50
2015,05,23,07,21,11.50
2015,05,23,07,22,11.50
2015,05,23,07,23,11.50
2015,05,23,07,24,11.60
2015,05,23,07,25,11.60
2015,05,23,07,26,11.60
2015,05,23,07,27,11.60
2015,05,23,07,28,11.60
2015,05,23,07,29,11.60
2015,05,23,07,30,11.60
2015,05,23,07,31,11.60
2015,05,23,07,32,11.60
2015,05,23,07,33,11.60
2015,05,23,07,34,11.60
2015,05,23,07,35,11.60
2015,05,23,07,36,11.60
2015,05,23,07,37,11.60
2015,05,23,07,38,11.60
2015,05,23,07,39,11.60
2015,05,23,07,40,11.60
2015,05,23,07,41,11.60
2015,05,23,07,42,11.70
2015,05,23,07,43,11.70
2015,05,23,07,44,11.70
2015,05,23,07,45,11.70
2015,05,23,07,46,11.70
2015,05,23,07,47,11.70
2015,05,23,07,48,11.70
2015,05,23,07,49,11.70
2015,05,23,07,50,11.80
2015,05,23,07,51,11.80
2015,05,23,07,52,11.80
2015,05,23,07,53,11.80
2015,05,23,07,54,11.80
2015,05,23,07,55,11.80
2015,05,23,07,56,11.80
2015,05,23,07,57,11.80
2015,05,23,07,58,11.80
2015,05,23,07,59,11.80
2015,05,23,08,00,11.80
2015,05,23,08,01,11.80
2015,05,23,08,02,11.80
2015,05,23,08,03,11.90
2015,05,23,08,04,11.90
2015,05,23,08,05,11.90
2015,05,23,08,06,11.80
2015,05,23,08,07,11.80
2015,05,23,08,08,11.90
2015,05,23,08,09,11.90
2015,05,23,08,10,11.90
2015,05,23,08,11,11.90
2015,05,23,08,12,11.90
2015,05,23,08,13,11.90
2015,05,23,08,14,11.90
2015,05,23,08,15,11.90
2015,05,23,08,16,11.90
2015,05,23,08,17,11.90
2015,05,23,08,18,11.90
2015,05,23,08,19,11.90
2015,05,23,08,20,11.90
2015,05,23,08,21,12.00
2015,05,23,08,22,12.00
2015,05,23,08,23,12.00
2015,05,23,08,24,12.00
2015,05,23,08,25,12.00
2015,05,23,08,26,12.00
2015,05,23,08,27,12.10
2015,05,23,08,28,12.10
2015,05,23,08,29,12.10
2015,05,23,08,30,12.10
2015,05,23,08,31,12.10
2015,05,23,08,32,12.10
2015,05,23,08,33,12.20
2015,05,23,08,34,12.20
2015,05,23,08,35,12.20
2015,05,23,08,36,12.20
2015,05,23,08,37,12.20
2015,05,23,08,38,12.20
2015,05,23,08,39,12.30
2015,05,23,08,40,12.30
2015,05,23,08,41,12.30
2015,05,23,08,42,12.30
2015,05,23,08,43,12.30
2015,05,23,08,44,12.30
2015,05,23,08,45,12.30
2015,05,23,08,46,12.40
2015,05,23,08,47,12.40
2015,05,23,08,48,12.40
2015,05,23,08,49,12.40
2015,05,23,08,50,12.40
2015,05,23,08,51,12.50
2015,05,23,08,52,12.50
2015,05,23,08,53,12.50
2015,05,23,08,54,12.60
2015,05,23,08,55,12.60
2015,05,23,08,56,12.60
2015,05,23,08,57,12.60
2015,05,23,08,58,12.70
2015,05,23,08,59,12.70
2015,05,23,09,00,12.70
2015,05,23,09,01,12.70
2015,05,23,09,02,12.70
2015,05,23,09,03,12.70
2015,05,23,09,04,12.70
2015,05,23,09,05,12.70
2015,05,23,09,06,12.70
2015,05,23,09,07,12.70
2015,05,23,09,08,12.70
2015,05,23,09,09,12.70
2015,05,23,09,10,12.70
2015,05,23,09,11,12.70
2015,05,23,09,12,12.80
2015,05,23,09,13,12.80
2015,05,23,09,14,12.80
2015,05,23,09,15,12.80
2015,05,23,09,16,12.80
2015,05,23,09,17,12.90
2015,05,23,09,18,12.90
2015,05,23,09,19,12.90
2015,05,23,09,20,13.00
2015,05,23,09,21,13.00
2015,05,23,09,22,13.10
2015,05,23,09,23,13.10
2015,05,23,09,24,13.10
2015,05,23,09,25,13.10
2015,05,23,09,26,13.20
2015,05,23,09,27,13.20
2015,05,23,09,28,13.20
2015,05,23,09,29,13.20
2015,05,23,09,30,13.20
2015,05,23,09,31,13.20
2015,05,23,09,32,13.20
2015,05,23,09,33,13.20
2015,05,23,09,34,13.20
2015,05,23,09,35,13.20
2015,05,23,09,36,13.20
2015,05,23,09,37,13.20
2015,05,23,09,38,13.20
2015,05,23,09,39,13.20
2015,05,23,09,40,13.20
2015,05,23,09,41,13.30
2015,05,23,09,42,13.30
2015,05,23,09,43,13.40
2015,05,23,09,44,13.40
2015,05,23,09,45,13.40
2015,05,23,09,46,13.50
2015,05,23,09,47,13.60
2015,05,23,09,48,13.60
2015,05,23,09,49,13.60
2015,05,23,09,50,13.60
2015,05,23,09,51,13.70
2015,05,23,09,52,13.70
2015,05,23,09,53,13.70
2015,05,23,09,54,13.70
2015,05,23,09,55,13.80
2015,05,23,09,56,13.80
2015,05,23,09,57,13.90
2015,05,23,09,58,13.90
2015,05,23,09,59,13.90
2015,05,23,10,00,13.90
2015,05,23,10,01,13.90
2015,05,23,10,02,13.80
2015,05,23,10,03,13.80
2015,05,23,10,04,13.80
2015,05,23,10,05,13.80
2015,05,23,10,06,13.80
2015,05,23,10,07,13.70
2015,05,23,10,08,13.70
2015,05,23,10,09,13.60
2015,05,23,10,10,13.60
2015,05,23,10,11,13.60
2015,05,23,10,12,13.50
2015,05,23,10,13,13.50
2015,05,23,10,14,13.60
2015,05,23,10,15,13.60
2015,05,23,10,16,13.60
2015,05,23,10,17,13.70
2015,05,23,10,18,13.70
2015,05,23,10,19,13.70
2015,05,23,10,20,13.70
2015,05,23,10,21,13.70
2015,05,23,10,22,13.80
2015,05,23,10,23,13.80
2015,05,23,10,24,13.80
2015,05,23,10,25,13.90
2015,05,23,10,26,14.00
2015,05,23,10,27,14.10
2015,05,23,10,28,14.10
2015,05,23,10,29,14.20
2015,05,23,10,30,14.20
2015,05,23,10,31,14.20
2015,05,23,10,32,14.20
2015,05,23,10,33,14.20
2015,05,23,10,34,14.30
2015,05,23,10,35,14.30
2015,05,23,10,36,14.30
2015,05,23,10,37,14.30
2015,05,23,10,38,14.30
2015,05,23,10,39,14.30
2015,05,23,10,40,14.30
2015,05,23,10,41,14.30
2015,05,23,10,42,14.30
2015,05,23,10,43,14.40
2015,05,23,10,44,14.40
2015,05,23,10,45,14.50
2015,05,23,10,46,14.60
2015,05,23,10,47,14.70
2015,05,23,10,48,14.80
2015,05,23,10,49,14.80
2015,05,23,10,50,14.80
2015,05,23,10,51,14.80
2015,05,23,10,52,14.80
2015,05,23,10,53,14.80
2015,05,23,10,54,14.80
2015,05,23,10,55,14.80
2015,05,23,10,56,14.90
2015,05,23,10,57,14.90
2015,05,23,10,58,15.00
2015,05,23,10,59,15.10
2015,05,23,11,00,15.20
2015,05,23,11,01,15.20
2015,05,23,11,02,15.20
2015,05,23,11,03,15.20
2015,05,23,11,04,15.20
2015,05,23,11,05,15.20
2015,05,23,11,06,15.30
2015,05,23,11,07,15.20
2015,05,23,11,08,15.20
2015,05,23,11,09,15.20
2015,05,23,11,10,15.20
2015,05,23,11,11,15.10
2015,05,23,11,12,15.10
2015,05,23,11,13,15.10
2015,05,23,11,14,15.10
2015,05,23,11,15,15.10
2015,05,23,11,16,15.10
2015,05,23,11,17,15.10
2015,05,23,11,18,15.20
2015,05,23,11,19,15.20
2015,05,23,11,20,15.30
2015,05,23,11,21,15.30
2015,05,23,11,22,15.40
2015,05,23,11,23,15.50
2015,05,23,11,24,15.60
2015,05,23,11,25,15.70
2015,05,23,11,26,15.80
2015,05,23,11,27,15.80
2015,05,23,11,28,15.80
2015,05,23,11,29,15.80
2015,05,23,11,30,15.80
2015,05,23,11,31,15.90
2015,05,23,11,32,15.90
2015,05,23,11,33,15.90
2015,05,23,11,34,15.90
2015,05,23,11,35,15.90
2015,05,23,11,36,16.00
2015,05,23,11,37,16.00
2015,05,23,11,38,16.00
2015,05,23,11,39,16.00
2015,05,23,11,40,16.00
2015,05,23,11,41,16.10
2015,05,23,11,42,16.10
2015,05,23,11,43,16.20
2015,05,23,11,44,16.40
2015,05,23,11,45,16.50
2015,05,23,11,46,16.50
2015,05,23,11,47,16.60
2015,05,23,11,48,16.60
2015,05,23,11,49,16.60
2015,05,23,11,50,16.60
2015,05,23,11,51,16.60
2015,05,23,11,52,16.60
2015,05,23,11,53,16.60
2015,05,23,11,54,16.70
2015,05,23,11,55,16.70
2015,05,23,11,56,16.80
2015,05,23,11,57,16.80
2015,05,23,11,58,16.80
2015,05,23,11,59,16.80
2015,05,23,12,00,16.80
2015,05,23,12,01,16.80
2015,05,23,12,02,16.80
2015,05,23,12,03,16.80
2015,05,23,12,04,16.80
2015,05,23,12,05,16.80
2015,05,23,12,06,16.80
2015,05,23,12,07,16.80
2015,05,23,12,08,16.80
2015,05,23,12,09,16.80
2015,05,23,12,10,16.80
2015,05,23,12,11,16.80
2015,05,23,12,12,16.80
2015,05,23,12,13,16.90
2015,05,23,12,14,16.80
2015,05,23,12,15,16.70
2015,05,23,12,16,16.70
2015,05,23,12,17,16.70
2015,05,23,12,18,16.70
2015,05,23,12,19,16.70
2015,05,23,12,20,16.70
2015,05,23,12,21,16.70
2015,05,23,12,22,16.60
2015,05,23,12,23,16.70
2015,05,23,12,24,16.80
2015,05,23,12,25,16.90
2015,05,23,12,26,16.90
2015,05,23,12,27,17.00
2015,05,23,12,28,17.00
2015,05,23,12,29,17.10
2015,05,23,12,30,17.10
2015,05,23,12,31,17.00
2015,05,23,12,32,17.00
2015,05,23,12,33,16.90
2015,05,23,12,34,16.90
2015,05,23,12,35,16.80
2015,05,23,12,36,16.80
2015,05,23,12,37,16.80
2015,05,23,12,38,16.70
2015,05,23,12,39,16.70
2015,05,23,12,40,16.70
2015,05,23,12,41,16.70
2015,05,23,12,42,16.70
2015,05,23,12,43,16.70
2015,05,23,12,44,16.70
2015,05,23,12,45,16.70
2015,05,23,12,46,16.70
2015,05,23,12,47,16.60
2015,05,23,12,48,16.60
2015,05,23,12,49,16.60
2015,05,23,12,50,16.70
2015,05,23,12,51,16.70
2015,05,23,12,52,16.90
2015,05,23,12,53,17.00
2015,05,23,12,54,17.10
2015,05,23,12,55,17.10
2015,05,23,12,56,17.20
2015,05,23,12,57,17.20
2015,05,23,12,58,17.20
2015,05,23,12,59,17.20
2015,05,23,13,00,17.20
2015,05,23,13,01,17.20
2015,05,23,13,02,17.30
2015,05,23,13,03,17.20
2015,05,23,13,04,17.20
2015,05,23,13,05,17.20
2015,05,23,13,06,17.20
2015,05,23,13,07,17.20
2015,05,23,13,08,17.10
2015,05,23,13,09,17.00
2015,05,23,13,10,16.90
2015,05,23,13,11,16.80
2015,05,23,13,12,16.80
2015,05,23,13,13,16.80
2015,05,23,13,14,16.80
2015,05,23,13,15,16.80
2015,05,23,13,16,16.80
2015,05,23,13,17,16.70
2015,05,23,13,18,16.70
2015,05,23,13,19,16.70
2015,05,23,13,20,16.70
2015,05,23,13,21,16.70
2015,05,23,13,22,16.70
2015,05,23,13,23,16.60
2015,05,23,13,24,16.70
2015,05,23,13,25,16.70
2015,05,23,13,26,16.70
2015,05,23,13,27,16.70
2015,05,23,13,28,16.70
2015,05,23,13,29,16.70
2015,05,23,13,30,16.60
2015,05,23,13,31,16.60
2015,05,23,13,32,16.70
2015,05,23,13,33,16.70
2015,05,23,13,34,16.70
2015,05,23,13,35,16.70
2015,05,23,13,36,16.60
2015,05,23,13,37,16.70
2015,05,23,13,38,16.70
2015,05,23,13,39,16.60
2015,05,23,13,40,16.70
2015,05,23,13,41,16.70
2015,05,23,13,42,16.70
2015,05,23,13,43,16.80
2015,05,23,13,44,16.80
2015,05,23,13,45,16.90
2015,05,23,13,46,17.00
2015,05,23,13,47,17.00
2015,05,23,13,48,17.00
2015,05,23,13,49,17.00
2015,05,23,13,50,16.90
2015,05,23,13,51,16.90
2015,05,23,13,52,17.00
2015,05,23,13,53,17.10
2015,05,23,13,54,17.10
2015,05,23,13,55,17.10
2015,05,23,13,56,17.10
2015,05,23,13,57,17.10
2015,05,23,13,58,17.10
2015,05,23,13,59,17.10
2015,05,23,14,00,17.00
2015,05,23,14,01,16.90
2015,05,23,14,02,16.90
2015,05,23,14,03,16.90
2015,05,23,14,04,16.90
2015,05,23,14,05,16.90
2015,05,23,14,06,16.90
2015,05,23,14,07,16.90
2015,05,23,14,08,16.90
2015,05,23,14,09,16.90
2015,05,23,14,10,17.00
2015,05,23,14,11,16.90
2015,05,23,14,12,16.90
2015,05,23,14,13,16.90
2015,05,23,14,14,16.90
2015,05,23,14,15,17.00
2015,05,23,14,16,16.90
2015,05,23,14,17,17.00
2015,05,23,14,18,17.00
2015,05,23,14,19,17.10
2015,05,23,14,20,17.10
2015,05,23,14,21,17.10
2015,05,23,14,22,17.10
2015,05,23,14,23,17.10
2015,05,23,14,24,17.20
2015,05,23,14,25,17.20
2015,05,23,14,26,17.20
2015,05,23,14,27,17.10
2015,05,23,14,28,17.10
2015,05,23,14,29,17.10
2015,05,23,14,30,17.20
2015,05,23,14,31,17.20
2015,05,23,14,32,17.20
2015,05,23,14,33,17.30
2015,05,23,14,34,17.40
2015,05,23,14,35,17.50
2015,05,23,14,36,17.50
2015,05,23,14,37,17.30
2015,05,23,14,38,17.30
2015,05,23,14,39,17.30
2015,05,23,14,40,17.40
2015,05,23,14,41,17.40
2015,05,23,14,42,17.50
2015,05,23,14,43,17.50
2015,05,23,14,44,17.50
2015,05,23,14,45,17.50
2015,05,23,14,46,17.60
2015,05,23,14,47,17.60
2015,05,23,14,48,17.60
2015,05,23,14,49,17.70
2015,05,23,14,50,17.70
2015,05,23,14,51,17.60
2015,05,23,14,52,17.60
2015,05,23,14,53,17.60
2015,05,23,14,54,17.50
2015,05,23,14,55,17.40
2015,05,23,14,56,17.40
2015,05,23,14,57,17.30
2015,05,23,14,58,17.30
2015,05,23,14,59,17.30
2015,05,23,15,00,17.30
2015,05,23,15,01,17.30
2015,05,23,15,02,17.30
2015,05,23,15,03,17.30
2015,05,23,15,04,17.40
2015,05,23,15,05,17.40
2015,05,23,15,06,17.40
2015,05,23,15,07,17.40
2015,05,23,15,08,17.40
2015,05,23,15,09,17.40
2015,05,23,15,10,17.40
2015,05,23,15,11,17.40
2015,05,23,15,12,17.40
2015,05,23,15,13,17.30
2015,05,23,15,14,17.30
2015,05,23,15,15,17.30
2015,05,23,15,16,17.30
2015,05,23,15,17,17.30
2015,05,23,15,18,17.20
2015,05,23,15,19,17.20
2015,05,23,15,20,17.20
2015,05,23,15,21,17.20
2015,05,23,15,22,17.30
2015,05,23,15,23,17.30
2015,05,23,15,24,17.30
2015,05,23,15,25,17.30
2015,05,23,15,26,17.20
2015,05,23,15,27,17.20
2015,05,23,15,28,17.20
2015,05,23,15,29,17.30
2015,05,23,15,30,17.30
2015,05,23,15,31,17.30
2015,05,23,15,32,17.20
2015,05,23,15,33,17.10
2015,05,23,15,34,17.10
2015,05,23,15,35,17.00
2015,05,23,15,36,16.90
2015,05,23,15,37,16.90
2015,05,23,15,38,16.90
2015,05,23,15,39,16.90
2015,05,23,15,40,17.00
2015,05,23,15,41,17.00
2015,05,23,15,42,17.00
2015,05,23,15,43,16.90
2015,05,23,15,44,16.80
2015,05,23,15,45,16.90
2015,05,23,15,46,16.80
2015,05,23,15,47,16.80
2015,05,23,15,48,16.70
2015,05,23,15,49,16.70
2015,05,23,15,50,16.70
2015,05,23,15,51,16.70
2015,05,23,15,52,16.80
2015,05,23,15,53,16.80
2015,05,23,15,54,16.90
2015,05,23,15,55,16.90
2015,05,23,15,56,16.90
2015,05,23,15,57,16.90
2015,05,23,15,58,17.00
2015,05,23,15,59,17.00
2015,05,23,16,00,17.10
2015,05,23,16,01,17.00
2015,05,23,16,02,16.80
2015,05,23,16,03,16.70
2015,05,23,16,04,16.60
2015,05,23,16,05,16.60
2015,05,23,16,06,16.60
2015,05,23,16,07,16.60
2015,05,23,16,08,16.70
2015,05,23,16,09,16.70
2015,05,23,16,10,16.70
2015,05,23,16,11,16.70
2015,05,23,16,12,16.80
2015,05,23,16,13,16.80
2015,05,23,16,14,16.80
2015,05,23,16,15,16.90
2015,05,23,16,16,16.90
2015,05,23,16,17,16.90
2015,05,23,16,18,16.90
2015,05,23,16,19,16.90
2015,05,23,16,20,17.00
2015,05,23,16,21,17.10
2015,05,23,16,22,17.20
2015,05,23,16,23,17.30
2015,05,23,16,24,17.40
2015,05,23,16,25,17.40
2015,05,23,16,26,17.50
2015,05,23,16,27,17.60
2015,05,23,16,28,17.60
2015,05,23,16,29,17.60
2015,05,23,16,30,17.50
2015,05,23,16,31,17.50
2015,05,23,16,32,17.50
2015,05,23,16,33,17.40
2015,05,23,16,34,17.40
2015,05,23,16,35,17.40
2015,05,23,16,36,17.40
2015,05,23,16,37,17.50
2015,05,23,16,38,17.50
2015,05,23,16,39,17.50
2015,05,23,16,40,17.60
2015,05,23,16,41,17.60
2015,05,23,16,42,17.70
2015,05,23,16,43,17.70
2015,05,23,16,44,17.70
2015,05,23,16,45,17.60
2015,05,23,16,46,17.60
2015,05,23,16,47,17.60
2015,05,23,16,48,17.50
2015,05,23,16,49,17.50
2015,05,23,16,50,17.50
2015,05,23,16,51,17.50
2015,05,23,16,52,17.50
2015,05,23,16,53,17.50
2015,05,23,16,54,17.60
2015,05,23,16,55,17.70
2015,05,23,16,56,17.80
2015,05,23,16,57,17.80
2015,05,23,16,58,17.80
2015,05,23,16,59,17.80
2015,05,23,17,00,17.80
2015,05,23,17,01,17.80
2015,05,23,17,02,17.80
2015,05,23,17,03,17.70
2015,05,23,17,04,17.80
2015,05,23,17,05,17.80
2015,05,23,17,06,17.80
2015,05,23,17,07,17.80
2015,05,23,17,08,17.80
2015,05,23,17,09,17.80
2015,05,23,17,10,17.80
2015,05,23,17,11,17.90
2015,05,23,17,12,17.80
2015,05,23,17,13,17.90
2015,05,23,17,14,17.90
2015,05,23,17,15,18.00
2015,05,23,17,16,18.00
2015,05,23,17,17,18.00
2015,05,23,17,18,17.90
2015,05,23,17,19,17.90
2015,05,23,17,20,17.90
2015,05,23,17,21,17.80
2015,05,23,17,22,17.90
2015,05,23,17,23,17.90
2015,05,23,17,24,17.90
2015,05,23,17,25,17.90
2015,05,23,17,26,17.90
2015,05,23,17,27,17.90
2015,05,23,17,28,17.90
2015,05,23,17,29,17.90
2015,05,23,17,30,17.90
2015,05,23,17,31,18.00
2015,05,23,17,32,18.00
2015,05,23,17,33,18.00
2015,05,23,17,34,18.00
2015,05,23,17,35,18.00
2015,05,23,17,36,18.00
2015,05,23,17,37,18.10
2015,05,23,17,38,18.10
2015,05,23,17,39,18.20
2015,05,23,17,40,18.20
2015,05,23,17,41,18.20
2015,05,23,17,42,18.20
2015,05,23,17,43,18.20
2015,05,23,17,44,18.30
2015,05,23,17,45,18.30
2015,05,23,17,46,18.40
2015,05,23,17,47,18.40
2015,05,23,17,48,18.40
2015,05,23,17,49,18.40
2015,05,23,17,50,18.40
2015,05,23,17,51,18.40
2015,05,23,17,52,18.40
2015,05,23,17,53,18.50
2015,05,23,17,54,18.50
2015,05,23,17,55,18.50
2015,05,23,17,56,18.50
2015,05,23,17,57,18.50
2015,05,23,17,58,18.40
2015,05,23,17,59,18.40
2015,05,23,18,00,18.40
2015,05,23,18,01,18.40
2015,05,23,18,02,18.40
2015,05,23,18,03,18.40
2015,05,23,18,04,18.40
2015,05,23,18,05,18.40
2015,05,23,18,06,18.50
2015,05,23,18,07,18.50
2015,05,23,18,08,18.50
2015,05,23,18,09,18.60
2015,05,23,18,10,18.60
2015,05,23,18,11,18.60
2015,05,23,18,12,18.60
2015,05,23,18,13,18.60
2015,05,23,18,14,18.60
2015,05,23,18,15,18.60
2015,05,23,18,16,18.60
2015,05,23,18,17,18.60